This is the latest recevied weather packets stored in our database for station/object N9DRW. If no packets are shown the sender has not sent any weather packets the latest 10 day(s).
| Time | Temp. | Humidity | Pressure | Rain* | Wind** | Luminosity | Snow |
|---|---|---|---|---|---|---|---|
| 1777824726 | 15.56° C | 50% | 0 hPa | 0 mm | - | - | - |
| 1777824126 | 15.56° C | 51% | 0 hPa | 0 mm | - | - | - |
| 1777823527 | 15° C | 55% | 0 hPa | 0 mm | - | - | - |
| 1777822926 | 14.44° C | 54% | 0 hPa | 0 mm | - | - | - |
| 1777822327 | 14.44° C | 56% | 0 hPa | 0 mm | - | - | - |
| 1777821726 | 14.44° C | 60% | 0 hPa | 0 mm | - | - | - |
| 1777821126 | 13.89° C | 61% | 0 hPa | 0 mm | - | - | - |
| 1777820526 | 13.89° C | 61% | 0 hPa | 0 mm | - | - | - |
| 1777819926 | 13.33° C | 61% | 0 hPa | 0 mm | - | - | - |
| 1777819326 | 12.22° C | 63% | 0 hPa | 0 mm | - | - | - |
| 1777818726 | 12.22° C | 67% | 0 hPa | 0 mm | - | - | - |
| 1777818126 | 11.11° C | 69% | 0 hPa | 0 mm | - | - | - |
| 1777817526 | 10.56° C | 73% | 0 hPa | 0 mm | - | - | - |
| 1777816926 | 10.56° C | 75% | 0 hPa | 0 mm | - | - | - |
| 1777816326 | 10.56° C | 72% | 0 hPa | 0 mm | - | - | - |
| 1777815727 | 10.56° C | 72% | 0 hPa | 0 mm | - | - | - |
| 1777815126 | 10.56° C | 71% | 0 hPa | 0 mm | - | - | - |
| 1777814527 | 10.56° C | 71% | 0 hPa | 0 mm | - | - | - |
| 1777813926 | 10.56° C | 70% | 0 hPa | 0 mm | - | - | - |
| 1777813326 | 10.56° C | 69% | 0 hPa | 0 mm | - | - | - |
| 1777812726 | 10.56° C | 69% | 0 hPa | 0 mm | - | - | - |
| 1777812125 | 10° C | 70% | 0 hPa | 0 mm | - | - | - |
| 1777811530 | 10.56° C | 67% | 0 hPa | 0 mm | - | - | - |
| 1777810926 | 10° C | 64% | 0 hPa | 0 mm | - | - | - |
| 1777810327 | 10° C | 62% | 0 hPa | 0 mm | - | - | - |
* Rain latest hour (hover to see other rain measurements)
** Current wind speed in m/s (hover to see current wind gust speed)